This demonstration page uses our WeatherBlox Daily Observations layout. Learn more.

Left ArrowRight Arrow

Hourly Observations for December 26, 2020

Temp ( °F °C ) Dew Point ( °F °C ) Humidity (%) Winds ( mph kmh ) Pressure ( in mb ) Visibility ( mi km ) Precip ( " mm )
12:51 am 00:51 Clear 31 -0.6 11 -11.7 43 43 Calm 30.19 1022 10 16.0934 0 0
1:51 am 01:51 Clear 30 -1.1 11 -11.7 45 45 Calm 30.18 1022 10 16.0934 0 0
2:51 am 02:51 Clear 29 -1.7 11 -11.7 47 47 NE 3 6 30.18 1022 10 16.0934 0 0
3:51 am 03:51 Clear 30 -1.1 11 -11.7 45 45 Calm 30.18 1022 10 16.0934 0 0
4:51 am 04:51 Clear 29 -1.7 11 -11.7 47 47 Calm 30.18 1022 10 16.0934 0 0
5:51 am 05:51 Clear 27 -2.8 11 -11.7 51 51 SE 3 6 30.19 1022 10 16.0934 0 0
6:51 am 06:51 Clear 27 -2.8 11 -11.7 51 51 ESE 8 13 30.2 1023 10 16.0934 0 0
7:51 am 07:51 Sunny 29 -1.7 13 -10.6 51 51 S 3 6 30.22 1023 10 16.0934 0 0
8:51 am 08:51 Sunny 35 1.7 14 -10 42 42 SSE 3 6 30.22 1023 10 16.0934 0 0
9:51 am 09:51 Sunny 41 5 15 -9.4 35 35 S 5 7 30.22 1023 10 16.0934 0 0
10:51 am 10:51 Sunny 48 8.9 15 -9.4 27 27 Calm 30.2 1023 10 16.0934 0 0
11:51 am 11:51 Sunny 50 10 14 -10 24 24 Calm 30.18 1022 10 16.0934 0 0
12:51 pm 12:51 Sunny 53 11.7 12 -11.1 19 19 W 5 7 30.11 1020 10 16.0934 0 0
1:51 pm 13:51 Sunny 56 13.3 13 -10.6 18 18 SSW 3 6 30.06 1018 10 16.0934 0 0
2:51 pm 14:51 Sunny 58 14.4 13 -10.6 17 17 Calm 30.04 1017 10 16.0934 0 0
3:51 pm 15:51 Sunny 60 15.6 13 -10.6 16 16 VRB 6 9 30.03 1017 10 16.0934 0 0
4:51 pm 16:51 Sunny 58 14.4 14 -10 18 18 W 9 15 30.02 1017 10 16.0934 0 0
5:51 pm 17:51 Clear 51 10.6 13 -10.6 22 22 Calm 30.04 1017 10 16.0934 0 0
6:51 pm 18:51 Clear 48 8.9 13 -10.6 24 24 WNW 3 6 30.05 1018 10 16.0934 0 0
7:51 pm 19:51 Clear 41 5 14 -10 33 33 E 3 6 30.07 1018 10 16.0934 0 0
8:51 pm 20:51 Clear 41 5 14 -10 33 33 Calm 30.07 1018 10 16.0934 0 0
9:51 pm 21:51 Clear 40 4.4 15 -9.4 36 36 VRB 3 6 30.07 1018 10 16.0934 0 0
10:51 pm 22:51 Clear 36 2.2 15 -9.4 42 42 E 5 7 30.05 1018 10 16.0934 0 0
11:51 pm 23:51 Clear 36 2.2 15 -9.4 42 42 SE 7 11 30.04 1017 10 16.0934 0 0

Powered by AerisWeather